Location: Hawaiian Village Mobile Home Park
(32.8359°N, 116.9792°W)
Time: 18:30:37
(UTC+00:00)

FENGYUN 3A - Pass Details

Date: 01 August 2021
Orbit: 823 x 837 km, 98.5° (Epoch: 23 September)

Event Time Altitude Azimuth Distance (km) Brightness Sun altitude
Rises 12:09:40 0° 5° (N) 3,382 7.4 -10.7°
Reaches altitude 10° 12:12:06 10° 360° (N) 2,443 6.5 -10.3°
Maximum altitude 12:17:16 47° 287° (WNW) 1,084 4.0 -9.3°
Drops below altitude 10° 12:22:23 10° 215° (SW) 2,421 5.5 -8.4°
Enters shadow 12:23:28 - 212° (SSW) 2,831 5.9 -8.2°
